Location: Northam
(31.6525°S, 116.6655°E)
Time: 03:54:11
(UTC+08:00)

STARLINK-1838 - Pass Details

Date: 17 January 2021
Orbit: 489 x 491 km, 53.1° (Epoch: 28 February)

Event Time Altitude Azimuth Distance (km) Brightness Sun altitude
Rises 20:02:59 0° 212° (SSW) 2,587 8.3 -8.6°
Maximum altitude 20:08:46 25° 142° (SE) 1,025 4.9 -9.7°
Enters shadow 20:11:40 11° 87° (E) 1,553 5.4 -10.2°
